Theta_e
339 344 351 349 347 346 345 343 342 342 341 339 339 339 339 338 338 339 340 340 342 343 344 345 345 346 346 347 347 347 347 346 345 345 344 343 339 338 339 340 341 339 339
343 345 349 347 345 343 341 339 338 337 336 335 335 335 334 334 334 334 333 334 335 336 338 339 339 340 341 342 342 345 346 346 345 344 343 342 341 343 339 338 340 336 341
339 341 341 344 342 339 337 335 334 334 333 334 334 335 335 335 335 336 336 335 333 333 335 334 334 335 336 337 339 340 340 339 337 335 333 330 333 342 345 340 338 341 341
336 335 335 340 338 336 334 334 334 333 333 334 334 334 335 335 335 335 334 334 334 334 333 333 333 333 332 332 333 333 332 332 331 327 317 319 323 334 345 340 339 341 344
331 332 335 337 335 335 334 333 333 333 332 332 332 332 333 332 332 332 332 331 331 331 331 331 331 331 331 330 331 330 330 329 327 316 315 322 331 334 343 339 341 341 342
327 329 335 335 334 334 333 333 332 331 330 330 329 330 330 330 329 329 328 328 328 328 328 328 328 328 328 327 328 328 327 327 324 310 319 328 335 341 340 339 339 341 342
323 326 329 334 333 333 332 332 330 329 327 326 326 326 327 326 325 323 324 324 324 324 324 324 324 325 324 324 324 324 324 323 316 310 318 321 331 340 339 340 340 340 341
323 324 326 332 332 332 331 329 327 325 324 323 325 325 325 324 323 323 323 323 324 324 323 324 323 323 323 324 324 324 324 325 316 310 316 319 332 336 336 336 336 336 336
321 321 321 322 327 330 328 326 324 323 322 322 321 321 321 321 322 322 322 322 323 322 322 323 321 320 319 320 323 322 323 319 306 313 319 318 329 330 331 333 333 333 333
316 317 317 318 319 317 317 325 324 322 321 321 321 320 320 319 319 319 319 321 321 319 318 318 317 315 314 314 316 316 316 314 309 314 316 318 326 326 326 327 329 331 332
311 312 315 315 313 312 314 319 321 321 321 317 315 318 313 307 309 310 317 317 315 314 313 314 314 312 310 308 310 311 307 303 306 314 317 327 325 326 324 325 330 333 332
305 306 309 312 311 309 315 313 311 313 306 305 305 306 306 304 308 306 307 309 310 309 309 310 311 308 301 295 295 300 294 301 311 314 317 326 326 328 327 328 325 328 328
306 307 307 307 308 306 308 307 306 305 304 303 303 304 304 303 300 299 296 294 294 300 294 296 294 294 293 294 294 293 295 300 308 313 318 324 324 326 323 323 324 324 323
306 307 308 308 307 306 307 306 305 304 304 303 302 302 301 299 298 296 294 293 292 293 292 293 293 293 294 295 293 294 295 300 308 311 313 321 321 322 322 324 324 323 323
306 307 307 307 307 307 306 306 305 305 303 303 301 301 300 298 297 295 293 293 292 293 293 293 293 294 294 295 295 294 294 299 305 309 309 320 319 321 321 321 321 321 324
307 307 307 308 307 307 306 306 306 305 304 302 301 300 300 298 296 295 294 294 293 293 294 293 293 294 294 294 295 295 294 296 303 308 309 310 317 316 317 319 319 319 320
307 307 307 307 308 306 306 306 306 307 308 303 302 301 299 299 296 295 294 293 293 294 295 294 294 295 295 295 294 295 295 294 301 307 309 308 308 313 313 313 314 315 316
307 306 307 311 307 305 305 305 306 307 306 305 303 301 301 299 297 296 295 294 294 294 294 294 293 294 294 293 293 294 294 295 298 304 308 307 305 306 308 310 310 310 310
308 307 306 307 306 305 304 304 304 306 305 305 304 303 302 301 299 297 297 296 294 294 294 293 293 292 293 293 295 295 294 295 296 306 305 306 304 304 301 306 309 308 308
307 307 306 306 305 304 304 303 303 303 302 303 304 304 305 302 301 298 298 298 297 295 295 294 293 293 293 292 296 295 294 295 296 301 303 305 303 303 301 300 299 298 307
306 305 305 304 304 302 302 301 301 301 301 302 303 305 305 304 303 299 299 299 297 296 294 295 294 293 293 293 292 293 293 295 297 298 299 301 303 303 301 299 297 296 296
305 305 303 304 303 303 303 303 302 301 301 302 303 304 305 305 305 302 300 299 299 297 297 295 294 293 293 292 291 289 288 291 292 293 294 297 298 297 298 298 297 297 296
302 303 303 304 304 304 304 303 303 303 302 302 302 303 303 304 304 303 301 300 299 298 297 296 295 294 291 292 292 290 288 286 288 292 292 293 293 293 294 296 296 296 296
301 302 303 304 304 304 304 303 302 300 299 301 302 302 303 304 303 303 302 301 300 299 297 296 298 294 292 292 293 294 291 290 287 287 291 292 293 294 294 294 294 295 295
301 301 302 303 304 304 303 303 301 300 300 300 300 300 300 302 303 303 302 300 299 299 297 297 296 295 294 292 292 292 290 290 289 287 285 288 293 293 293 293 293 293 293
300 301 301 302 303 303 303 302 301 300 299 298 298 298 299 300 300 301 301 299 298 297 297 296 296 295 294 293 293 292 291 290 289 288 287 289 289 291 291 292 292 292 292
Wind_Speed
3 4 12 11 10 10 9 9 10 10 9 9 9 9 10 9 10 10 10 11 12 12 12 12 11 11 10 9 9 8 8 6 7 7 7 7 6 5 3 2 4 2 2
8 6 13 11 10 10 9 9 10 9 9 8 9 9 8 9 9 9 9 9 9 9 9 8 9 9 9 9 9 10 8 9 9 9 9 7 7 6 5 2 2 1 1
9 7 10 11 10 10 9 9 9 9 8 8 8 8 8 9 9 10 10 10 9 9 9 9 9 9 10 10 10 10 11 11 11 11 10 5 5 8 7 4 4 4 3
11 7 7 11 10 10 9 9 9 8 9 8 8 8 9 9 10 10 10 11 10 9 9 9 10 10 10 10 10 10 11 11 12 11 5 5 7 11 9 5 4 4 5
10 8 8 11 10 10 10 9 9 8 9 8 8 8 8 9 10 10 10 10 10 10 9 9 9 10 10 10 10 11 11 12 13 9 6 6 5 5 5 2 3 4 5
9 7 9 11 10 10 10 9 8 8 8 8 8 8 8 9 9 9 9 9 9 9 9 9 10 9 9 9 9 10 11 12 11 6 6 7 5 1 3 2 2 4 6
7 6 7 10 10 9 9 9 8 8 8 7 7 8 8 8 8 9 8 9 9 9 9 10 10 10 9 9 9 9 10 10 5 5 5 6 6 6 3 5 5 7 6
10 6 6 8 9 9 9 8 8 7 7 7 7 8 8 8 9 9 9 10 9 10 10 10 10 10 10 10 8 9 10 9 4 4 4 5 10 7 6 5 6 6 6
6 7 6 5 6 8 8 8 7 8 8 8 6 5 5 6 7 8 9 9 10 10 9 10 9 10 12 13 12 10 10 8 4 2 3 3 7 7 6 5 5 5 6
6 6 6 5 4 3 3 7 7 7 6 5 5 4 5 7 6 6 8 8 8 10 11 11 11 11 12 11 13 13 10 8 4 3 3 3 6 7 6 5 5 5 5
4 5 6 5 4 2 2 2 4 3 4 7 6 6 6 4 4 6 8 10 11 11 11 11 11 12 12 12 12 13 10 4 3 2 2 8 7 5 4 4 5 6 5
6 5 6 6 5 3 2 2 1 1 3 3 4 4 4 4 4 5 7 10 10 11 11 12 12 12 9 4 4 8 3 5 3 3 2 7 7 4 3 6 5 8 6
6 4 6 6 6 4 3 2 1 1 1 2 4 3 4 3 3 4 3 4 4 8 4 6 6 4 6 5 4 4 4 3 2 2 4 6 6 7 5 6 5 5 4
7 7 6 6 6 5 3 2 2 2 1 2 2 3 3 2 3 3 3 3 4 3 5 5 3 5 6 6 5 6 5 4 1 1 4 6 6 5 3 4 4 3 4
7 6 7 6 6 5 4 3 2 2 2 2 2 2 2 2 2 2 2 3 3 3 4 5 4 5 5 6 5 5 5 5 3 1 2 6 6 6 6 6 6 5 8
6 7 7 6 5 5 4 3 3 3 3 2 1 1 2 2 2 2 2 3 3 3 3 3 3 4 4 4 6 6 5 4 3 1 1 3 4 5 5 6 5 5 6
5 7 8 7 6 5 4 4 3 2 3 2 2 2 2 2 2 2 1 2 2 3 4 4 4 4 4 4 5 5 5 5 3 3 2 1 2 3 4 4 5 6 6
6 8 7 5 6 5 4 3 2 3 2 2 2 2 2 2 2 2 1 2 2 3 3 3 3 4 4 4 4 5 4 4 3 3 3 2 1 1 3 4 4 5 6
9 8 8 6 7 6 4 3 3 3 2 2 2 2 3 3 3 2 0 1 2 2 3 2 2 2 3 5 6 4 4 4 4 0 3 3 3 2 1 4 5 6 6
8 7 6 5 7 6 3 2 1 1 1 1 3 3 4 3 2 2 0 1 1 2 3 3 2 2 2 3 5 5 4 4 1 1 2 2 3 3 3 3 2 4 9
6 7 8 8 7 4 2 2 0 2 2 2 2 4 3 3 2 2 1 1 0 1 1 2 2 3 3 4 4 4 3 4 3 2 3 3 3 3 3 3 3 3 4
9 8 7 7 7 5 3 2 2 2 1 1 1 2 3 4 4 3 2 1 1 2 3 3 3 3 2 4 2 0 4 5 4 4 4 3 4 3 4 4 4 5 5
8 9 9 8 8 5 5 3 2 2 2 2 1 2 2 3 3 2 2 1 1 1 2 2 2 2 2 2 4 1 3 2 4 3 4 3 5 3 3 3 5 5 5
6 6 6 7 7 5 6 3 3 3 3 3 1 1 3 2 1 1 1 0 1 1 2 2 1 1 1 2 3 2 1 2 1 5 4 3 4 6 6 5 5 5 5
6 6 6 6 5 5 5 5 4 4 2 0 0 2 2 2 3 0 1 2 2 2 2 3 3 2 1 1 1 2 1 1 1 3 5 4 5 3 4 4 5 5 5
3 4 5 7 5 5 6 5 5 5 4 2 2 2 1 1 2 4 5 4 3 3 3 2 2 2 1 1 1 2 2 2 2 2 3 5 7 5 3 4 5 4 4
Wind_Direction
148 153 128 116 112 108 99 89 81 72 63 57 52 49 43 39 36 33 30 25 23 26 28 28 21 20 24 22 17 7 9 5 6 4 358 348 335 323 337 48 65 68 87
119 129 111 115 115 106 99 90 83 75 64 58 55 49 46 44 39 35 32 29 27 28 33 26 16 11 11 10 6 14 19 8 10 2 348 333 315 294 285 260 249 250 215
116 116 111 120 113 107 99 90 85 80 73 66 62 57 53 53 50 46 43 41 40 37 32 24 19 17 11 7 6 4 359 352 356 349 336 319 301 285 262 257 249 254 258
121 110 109 122 118 112 103 96 91 85 80 71 65 62 63 56 49 47 43 39 39 36 32 27 21 17 14 11 5 358 350 348 356 344 334 312 308 288 260 230 254 281 298
113 110 119 126 121 115 108 102 96 89 84 81 73 67 60 58 51 44 40 36 32 27 23 19 15 11 8 2 358 356 351 353 360 350 331 312 278 263 200 221 290 308 305
105 106 121 125 123 117 111 105 100 93 87 82 79 74 68 64 52 45 38 32 29 21 15 10 2 358 356 353 348 347 348 352 358 344 342 334 347 342 87 108 10 350 345
107 113 115 129 124 121 117 113 106 100 94 90 87 83 75 67 61 46 42 34 31 26 23 17 8 0 355 353 350 353 357 357 351 345 346 344 345 53 66 43 49 39 27
131 121 111 124 128 125 120 116 113 106 101 98 93 80 78 66 57 51 52 47 42 32 30 23 19 15 5 360 350 355 357 359 359 337 347 348 354 26 33 38 31 24 18
112 109 101 97 124 127 126 122 118 110 100 96 85 81 69 53 44 48 39 33 31 23 19 9 11 17 12 3 10 1 5 21 21 14 4 347 347 1 2 2 1 6 4
112 114 119 108 97 99 121 132 123 111 95 77 54 83 70 38 34 25 32 19 23 26 23 18 16 17 19 14 7 7 13 20 27 2 347 311 346 337 333 333 341 347 349
117 134 135 137 134 141 157 162 106 77 62 63 54 65 64 44 35 35 34 39 32 27 22 16 14 15 16 11 13 8 10 355 355 1 340 327 349 354 355 358 16 24 18
162 164 165 162 168 171 203 125 94 55 68 63 66 71 63 56 43 49 31 33 26 25 21 16 15 16 14 4 354 11 4 350 353 344 334 0 350 5 43 21 345 345 349
164 154 167 161 171 176 154 141 95 74 74 55 66 74 61 55 37 37 27 15 10 19 17 10 3 9 1 0 359 358 355 6 329 339 338 14 6 358 11 337 7 332 330
165 170 170 168 157 157 137 135 142 125 127 88 60 73 75 59 41 35 31 9 19 3 10 7 360 351 357 359 0 354 354 348 320 337 336 11 20 7 356 351 9 342 326
169 172 182 170 161 154 143 140 140 147 136 133 86 81 95 80 62 37 18 21 13 1 11 357 359 353 352 347 350 0 351 347 331 333 343 5 28 22 14 340 327 334 355
164 179 178 187 173 152 152 159 155 151 143 143 145 160 108 112 97 55 24 13 10 9 351 349 348 344 341 341 336 345 332 326 321 254 306 337 55 39 25 14 13 7 350
181 174 181 184 173 164 163 165 162 177 157 173 194 190 161 134 109 94 36 6 355 352 352 355 353 351 352 339 332 327 325 316 304 235 216 235 7 30 31 25 20 7 356
157 181 179 181 169 168 163 164 185 189 176 196 201 211 212 182 154 105 45 351 343 6 6 354 353 340 344 345 321 311 317 308 288 238 209 211 228 320 353 342 358 357 342
178 168 185 183 175 172 163 164 189 203 204 227 217 216 237 218 187 145 96 341 5 10 12 352 331 4 329 331 318 317 317 299 285 329 225 218 240 242 248 303 315 327 320
174 171 170 173 172 163 142 122 75 4 271 238 230 230 237 230 208 161 44 6 29 18 355 359 332 316 281 312 313 323 331 337 301 309 290 271 248 253 272 279 315 317 312
156 157 174 171 179 152 141 144 196 231 231 265 240 245 239 225 217 197 215 267 9 13 316 326 325 358 328 332 343 341 337 8 52 358 343 306 306 303 284 300 306 309 306
173 180 175 186 176 182 153 170 152 159 212 250 295 299 243 225 216 202 214 273 330 341 347 358 26 344 321 11 24 325 356 333 349 15 12 2 30 350 339 344 325 304 291
178 185 179 186 180 183 173 114 76 57 28 354 314 278 264 246 239 221 210 222 318 23 339 341 346 26 351 328 13 123 3 313 327 330 355 44 8 8 3 334 307 308 304
192 167 179 175 179 182 168 145 157 174 196 226 232 325 325 355 255 238 207 164 351 10 351 336 33 50 67 340 337 37 335 185 274 323 328 321 1 341 321 321 320 311 311
161 177 178 166 172 172 168 168 169 187 214 295 301 308 317 352 355 303 139 86 34 27 5 355 356 357 115 158 176 336 348 328 298 233 286 310 314 282 287 294 290 297 319
142 135 148 162 169 165 176 171 182 200 205 213 235 240 284 69 56 60 74 67 55 41 22 9 13 15 329 249 228 217 203 227 259 265 275 298 289 294 269 279 281 296 307